| time (UTC) | temp C | wind direction | speed KPH | gust KPH | rain 1hr cm | rain 24hr cm | rain mn cm | humidity % | barometer mb |
| 20260905153230 | 29 | 135 | 3.2 | 6.4 | 0.00 | 0.00 | 0.00 | 45 | 1013.9 |
| 20260905152724 | 29 | 36 | 4.8 | 8.0 | 0.00 | 0.00 | 0.00 | 45 | 1013.8 |
| 20260905152219 | 29 | 54 | 6.4 | 6.4 | 0.00 | 0.00 | 0.00 | 45 | 1013.7 |
| 20260905151719 | 28 | 56 | 6.4 | 11.3 | 0.00 | 0.00 | 0.00 | 46 | 1013.8 |
| 20260905151215 | 28 | 17 | 8.0 | 8.0 | 0.00 | 0.00 | 0.00 | 47 | 1014.1 |
| 20260905150710 | 27 | 354 | 4.8 | 11.3 | 0.00 | 0.00 | 0.00 | 48 | 1013.8 |
| 20260905150209 | 27 | 11 | 4.8 | 8.0 | 0.00 | 0.00 | 0.00 | 49 | 1013.9 |
| 20260905145706 | 27 | 0 | 3.2 | 8.0 | 0.00 | 0.00 | 0.00 | 49 | 1013.9 |
| 20260905145202 | 27 | 32 | 3.2 | 6.4 | 0.00 | 0.00 | 0.00 | 51 | 1014.2 |
| 20260905144700 | 27 | 17 | 4.8 | 8.0 | 0.00 | 0.00 | 0.00 | 51 | 1014.1 |
| 20260905144155 | 26 | 2 | 6.4 | 6.4 | 0.00 | 0.00 | 0.00 | 52 | 1014.3 |
| 20260905143654 | 26 | 21 | 4.8 | 8.0 | 0.00 | 0.00 | 0.00 | 52 | 1013.9 |
| 20260905143149 | 26 | 20 | 4.8 | 8.0 | 0.00 | 0.00 | 0.00 | 53 | 1013.9 |
| 20260905142647 | 26 | 4 | 3.2 | 4.8 | 0.00 | 0.00 | 0.00 | 53 | 1013.9 |
| 20260905142147 | 26 | 3 | 4.8 | 4.8 | 0.00 | 0.00 | 0.00 | 53 | 1014.2 |
| 20260905141643 | 26 | 4 | 3.2 | 3.2 | 0.00 | 0.00 | 0.00 | 53 | 1013.9 |
| 20260905141139 | 27 | 0 | 0.0 | 3.2 | 0.00 | 0.00 | 0.00 | 51 | 1014.4 |
| 20260905140633 | 26 | 342 | 0.0 | 3.2 | 0.00 | 0.00 | 0.00 | 52 | 1014.1 |
| 20260905140133 | 26 | 90 | 1.6 | 3.2 | 0.00 | 0.00 | 0.00 | 52 | 1013.9 |
| 20260905135628 | 26 | 145 | 0.0 | 3.2 | 0.00 | 0.00 | 0.00 | 52 | 1014.2 |
| 20260905135124 | 26 | 90 | 0.0 | 1.6 | 0.00 | 0.00 | 0.00 | 53 | 1014.2 |
| 20260905134618 | 25 | 90 | 0.0 | 3.2 | 0.00 | 0.00 | 0.00 | 54 | 1014.2 |
| 20260905134117 | 24 | 106 | 3.2 | 4.8 | 0.00 | 0.00 | 0.00 | 56 | 1013.7 |
| 20260905133612 | 24 | 7 | 1.6 | 3.2 | 0.00 | 0.00 | 0.00 | 60 | 1014.1 |
| 20260905133107 | 23 | 0 | 0.0 | 6.4 | 0.00 | 0.00 | 0.00 | 61 | 1013.8 |
| 20260905132607 | 23 | 0 | 0.0 | 1.6 | 0.00 | 0.00 | 0.00 | 59 | 1013.5 |
| 20260905132101 | 22 | 106 | 0.0 | 3.2 | 0.00 | 0.00 | 0.00 | 62 | 1013.6 |
| 20260905131557 | 21 | 53 | 0.0 | 3.2 | 0.00 | 0.00 | 0.00 | 63 | 1013.6 |
| 20260905131052 | 21 | 3 | 3.2 | 4.8 | 0.00 | 0.00 | 0.00 | 64 | 1013.5 |
| 20260905130551 | 21 | 8 | 3.2 | 3.2 | 0.00 | 0.00 | 0.00 | 64 | 1013.3 |
| 20260905130046 | 21 | 48 | 3.2 | 4.8 | 0.00 | 0.00 | 0.00 | 65 | 1013.2 |
| 20260905125546 | 21 | 0 | 1.6 | 1.6 | 0.00 | 0.00 | 0.00 | 66 | 1013.2 |
| 20260905125041 | 21 | 0 | 0.0 | 3.2 | 0.00 | 0.00 | 0.00 | 65 | 1013.1 |
| 20260905124538 | 21 | 0 | 0.0 | 1.6 | 0.00 | 0.00 | 0.00 | 67 | 1013.1 |
| 20260905124033 | 21 | 82 | 0.0 | 1.6 | 0.00 | 0.00 | 0.00 | 66 | 1013.1 |
| 20260905123529 | 21 | 270 | 0.0 | 0.0 | 0.00 | 0.00 | 0.00 | 66 | 1013.0 |
| 20260905123026 | 21 | 270 | 0.0 | 0.0 | 0.00 | 0.00 | 0.00 | 66 | 1013.2 |
| 20260905122525 | 21 | 270 | 0.0 | 0.0 | 0.00 | 0.00 | 0.00 | 65 | 1013.0 |
| 20260905122020 | 21 | 345 | 0.0 | 0.0 | 0.00 | 0.00 | 0.00 | 63 | 1013.0 |
| 20260905121515 | 21 | 345 | 0.0 | 3.2 | 0.00 | 0.00 | 0.00 | 62 | 1012.7 |
| 20260905121015 | 21 | 355 | 1.6 | 4.8 | 0.00 | 0.00 | 0.00 | 62 | 1012.9 |
| 20260905120509 | 21 | 20 | 1.6 | 3.2 | 0.00 | 0.00 | 0.00 | 62 | 1013.0 |
| 20260905120004 | 21 | 40 | 3.2 | 3.2 | 0.00 | 0.00 | 0.00 | 62 | 1013.0 |
| 20260905115503 | 21 | 74 | 0.0 | 1.6 | 0.00 | 0.00 | 0.00 | 62 | 1012.7 |
| 20260905114958 | 21 | 84 | 1.6 | 1.6 | 0.00 | 0.00 | 0.00 | 62 | 1013.0 |
| 20260905114458 | 21 | 160 | 0.0 | 3.2 | 0.00 | 0.00 | 0.00 | 61 | 1013.0 |
| 20260905113956 | 21 | 6 | 1.6 | 3.2 | 0.00 | 0.00 | 0.00 | 62 | 1012.9 |
| 20260905113452 | 21 | 71 | 1.6 | 3.2 | 0.00 | 0.00 | 0.00 | 62 | 1012.9 |
| 20260905112947 | 21 | 0 | 0.0 | 1.6 | 0.00 | 0.00 | 0.00 | 62 | 1012.9 |
| 20260905112442 | 20 | 82 | 0.0 | 3.2 | 0.00 | 0.00 | 0.00 | 61 | 1012.9 |
| 20260905111938 | 21 | 354 | 0.0 | 1.6 | 0.00 | 0.00 | 0.00 | 61 | 1012.7 |
| 20260905111432 | 21 | 286 | 0.0 | 1.6 | 0.00 | 0.00 | 0.00 | 61 | 1012.6 |
| 20260905110932 | 21 | 90 | 0.0 | 3.2 | 0.00 | 0.00 | 0.00 | 61 | 1012.5 |
| 20260905110426 | 21 | 90 | 0.0 | 0.0 | 0.00 | 0.00 | 0.00 | 61 | 1012.6 |
| 20260905105920 | 22 | 90 | 0.0 | 0.0 | 0.00 | 0.00 | 0.00 | 61 | 1012.6 |
| 20260905105420 | 21 | 90 | 0.0 | 0.0 | 0.00 | 0.00 | 0.00 | 61 | 1012.5 |
| 20260905104919 | 22 | 345 | 0.0 | 0.0 | 0.00 | 0.00 | 0.00 | 60 | 1012.2 |
| 20260905104415 | 22 | 279 | 0.0 | 0.0 | 0.00 | 0.00 | 0.00 | 60 | 1012.4 |
| 20260905103910 | 22 | 23 | 0.0 | 0.0 | 0.00 | 0.00 | 0.00 | 60 | 1012.3 |
| 20260905103406 | 22 | 0 | 0.0 | 4.8 | 0.00 | 0.00 | 0.00 | 59 | 1012.2 |
| 20260905102901 | 22 | 20 | 0.0 | 1.6 | 0.00 | 0.00 | 0.00 | 59 | 1012.4 |
| 20260905102358 | 22 | 261 | 3.2 | 3.2 | 0.00 | 0.00 | 0.00 | 58 | 1012.3 |
| 20260905101852 | 22 | 23 | 0.0 | 3.2 | 0.00 | 0.00 | 0.00 | 57 | 1012.3 |
| 20260905101350 | 22 | 291 | 0.0 | 1.6 | 0.00 | 0.00 | 0.00 | 56 | 1012.3 |
| 20260905100844 | 22 | 294 | 0.0 | 3.2 | 0.00 | 0.00 | 0.00 | 56 | 1012.3 |
| 20260905100336 | 22 | 345 | 0.0 | 0.0 | 0.00 | 0.00 | 0.00 | 56 | 1012.2 |
| 20260905095835 | 22 | 345 | 0.0 | 1.6 | 0.00 | 0.00 | 0.00 | 56 | 1012.1 |
| 20260905095335 | 23 | 270 | 0.0 | 4.8 | 0.00 | 0.00 | 0.00 | 57 | 1012.2 |
| 20260905094829 | 22 | 352 | 0.0 | 1.6 | 0.00 | 0.00 | 0.00 | 57 | 1012.0 |
| 20260905094325 | 23 | 0 | 0.0 | 1.6 | 0.00 | 0.00 | 0.00 | 58 | 1012.2 |
| 20260905093824 | 23 | 352 | 0.0 | 0.0 | 0.00 | 0.00 | 0.00 | 57 | 1012.2 |
| 20260905093320 | 22 | 352 | 0.0 | 0.0 | 0.00 | 0.00 | 0.00 | 57 | 1012.2 |
| 20260905092816 | 23 | 7 | 0.0 | 3.2 | 0.00 | 0.00 | 0.00 | 57 | 1012.2 |
| 20260905092316 | 23 | 0 | 0.0 | 1.6 | 0.00 | 0.00 | 0.00 | 57 | 1011.9 |
| 20260905091811 | 23 | 29 | 0.0 | 1.6 | 0.00 | 0.00 | 0.00 | 57 | 1012.1 |
| 20260905091310 | 23 | 180 | 0.0 | 0.0 | 0.00 | 0.00 | 0.00 | 56 | 1012.1 |
| 20260905090809 | 23 | 180 | 0.0 | 1.6 | 0.00 | 0.00 | 0.00 | 56 | 1012.2 |
| 20260905090305 | 23 | 90 | 0.0 | 1.6 | 0.00 | 0.00 | 0.00 | 56 | 1012.1 |
| 20260905085805 | 23 | 0 | 1.6 | 3.2 | 0.00 | 0.00 | 0.00 | 55 | 1012.2 |
| 20260905085306 | 23 | 66 | 0.0 | 1.6 | 0.00 | 0.00 | 0.00 | 54 | 1011.9 |
| 20260905084800 | 23 | 84 | 0.0 | 4.8 | 0.00 | 0.00 | 0.00 | 55 | 1012.2 |
| 20260905084259 | 24 | 84 | 0.0 | 4.8 | 0.00 | 0.00 | 0.00 | 54 | 1011.9 |
| 20260905083754 | 25 | 0 | 0.0 | 1.6 | 0.00 | 0.00 | 0.00 | 53 | 1011.8 |
| 20260905083250 | 25 | 315 | 0.0 | 4.8 | 0.00 | 0.00 | 0.00 | 53 | 1011.5 |
| 20260905082745 | 25 | 355 | 0.0 | 3.2 | 0.00 | 0.00 | 0.00 | 52 | 1011.8 |
| 20260905082241 | 25 | 26 | 0.0 | 1.6 | 0.00 | 0.00 | 0.00 | 53 | 1011.8 |
| 20260905081735 | 25 | 0 | 0.0 | 0.0 | 0.00 | 0.00 | 0.00 | 53 | 1011.8 |
| 20260905081231 | 25 | 188 | 0.0 | 1.6 | 0.00 | 0.00 | 0.00 | 54 | 1011.8 |
| 20260905080725 | 24 | 306 | 0.0 | 1.6 | 0.00 | 0.00 | 0.00 | 55 | 1012.2 |
| 20260905080225 | 24 | 8 | 3.2 | 4.8 | 0.00 | 0.00 | 0.00 | 57 | 1011.9 |
| 20260905075724 | 24 | 15 | 3.2 | 3.2 | 0.00 | 0.00 | 0.00 | 56 | 1012.0 |
| 20260905075223 | 25 | 90 | 0.0 | 1.6 | 0.00 | 0.00 | 0.00 | 53 | 1012.1 |
| 20260905074722 | 26 | 158 | 3.2 | 3.2 | 0.00 | 0.00 | 0.00 | 52 | 1011.9 |
| 20260905074218 | 26 | 225 | 3.2 | 4.8 | 0.00 | 0.00 | 0.00 | 52 | 1011.9 |
| 20260905073714 | 26 | 248 | 0.0 | 6.4 | 0.00 | 0.00 | 0.00 | 51 | 1012.1 |
| 20260905073209 | 26 | 220 | 3.2 | 4.8 | 0.00 | 0.00 | 0.00 | 52 | 1012.0 |
| 20260905072708 | 26 | 194 | 0.0 | 4.8 | 0.00 | 0.00 | 0.00 | 52 | 1012.2 |
| 20260905072204 | 26 | 279 | 0.0 | 1.6 | 0.00 | 0.00 | 0.00 | 53 | 1012.1 |
| 20260905071700 | 26 | 246 | 0.0 | 1.6 | 0.00 | 0.00 | 0.00 | 53 | 1012.2 |
| 20260905071156 | 26 | 195 | 1.6 | 4.8 | 0.00 | 0.00 | 0.00 | 53 | 1012.4 |
| 20260905070651 | 26 | 260 | 3.2 | 4.8 | 0.00 | 0.00 | 0.00 | 53 | 1012.1 |
| 20260905070147 | 26 | 257 | 3.2 | 4.8 | 0.00 | 0.00 | 0.00 | 53 | 1012.0 |
| 20260905065645 | 26 | 270 | 0.0 | 6.4 | 0.00 | 0.00 | 0.00 | 52 | 1012.3 |
| 20260905065139 | 26 | 250 | 4.8 | 4.8 | 0.00 | 0.00 | 0.00 | 51 | 1012.3 |
| 20260905064634 | 26 | 185 | 4.8 | 8.0 | 0.00 | 0.00 | 0.00 | 53 | 1012.2 |
| 20260905064125 | 26 | 212 | 3.2 | 3.2 | 0.00 | 0.00 | 0.00 | 53 | 1012.6 |
| 20260905063623 | 25 | 74 | 0.0 | 0.0 | 0.00 | 0.00 | 0.00 | 53 | 1012.3 |
| 20260905063120 | 26 | 114 | 0.0 | 3.2 | 0.00 | 0.00 | 0.00 | 53 | 1012.3 |
| 20260905062615 | 26 | 254 | 0.0 | 0.0 | 0.00 | 0.00 | 0.00 | 52 | 1012.4 |
| 20260905062114 | 26 | 206 | 0.0 | 3.2 | 0.00 | 0.00 | 0.00 | 52 | 1012.3 |
| 20260905061609 | 26 | 200 | 0.0 | 4.8 | 0.00 | 0.00 | 0.00 | 50 | 1012.1 |
| 20260905061109 | 27 | 183 | 4.8 | 6.4 | 0.00 | 0.00 | 0.00 | 46 | 1012.1 |
| 20260905060605 | 26 | 0 | 1.6 | 4.8 | 0.00 | 0.00 | 0.00 | 47 | 1012.3 |
| 20260905060101 | 26 | 6 | 4.8 | 4.8 | 0.00 | 0.00 | 0.00 | 48 | 1012.2 |
| 20260905055559 | 26 | 60 | 0.0 | 3.2 | 0.00 | 0.00 | 0.00 | 47 | 1012.3 |
| 20260905055054 | 26 | 0 | 0.0 | 1.6 | 0.00 | 0.00 | 0.00 | 46 | 1012.1 |
| 20260905054550 | 27 | 0 | 0.0 | 3.2 | 0.00 | 0.00 | 0.00 | 46 | 1011.8 |
| 20260905054045 | 26 | 0 | 3.2 | 6.4 | 0.00 | 0.00 | 0.00 | 47 | 1012.1 |
| 20260905053544 | 27 | 294 | 0.0 | 1.6 | 0.00 | 0.00 | 0.00 | 46 | 1011.9 |
| 20260905053040 | 27 | 0 | 0.0 | 0.0 | 0.00 | 0.00 | 0.00 | 47 | 1011.9 |
| 20260905052539 | 27 | 0 | 0.0 | 3.2 | 0.00 | 0.00 | 0.00 | 46 | 1011.9 |
| 20260905052034 | 28 | 241 | 0.0 | 3.2 | 0.00 | 0.00 | 0.00 | 45 | 1012.1 |
| 20260905051530 | 28 | 261 | 0.0 | 0.0 | 0.00 | 0.00 | 0.00 | 45 | 1011.8 |
| 20260905051027 | 28 | 195 | 0.0 | 0.0 | 0.00 | 0.00 | 0.00 | 44 | 1012.0 |
| 20260905050522 | 28 | 246 | 1.6 | 1.6 | 0.00 | 0.00 | 0.00 | 44 | 1012.0 |
| 20260905050019 | 28 | 270 | 0.0 | 0.0 | 0.00 | 0.00 | 0.00 | 44 | 1012.2 |
| 20260905045513 | 28 | 270 | 0.0 | 0.0 | 0.00 | 0.00 | 0.00 | 44 | 1011.9 |
| 20260905045008 | 28 | 270 | 0.0 | 0.0 | 0.00 | 0.00 | 0.00 | 44 | 1011.8 |
| 20260905044503 | 28 | 270 | 0.0 | 0.0 | 0.00 | 0.00 | 0.00 | 44 | 1012.0 |
| 20260905044002 | 28 | 270 | 0.0 | 0.0 | 0.00 | 0.00 | 0.00 | 44 | 1012.0 |
| 20260905043502 | 28 | 15 | 0.0 | 0.0 | 0.00 | 0.00 | 0.00 | 44 | 1012.0 |
| 20260905042957 | 28 | 15 | 0.0 | 3.2 | 0.00 | 0.00 | 0.00 | 44 | 1011.8 |
| 20260905042450 | 28 | 55 | 4.8 | 4.8 | 0.00 | 0.00 | 0.00 | 44 | 1011.9 |
| 20260905041946 | 28 | 54 | 1.6 | 4.8 | 0.00 | 0.00 | 0.00 | 44 | 1012.1 |
| 20260905041442 | 28 | 49 | 3.2 | 3.2 | 0.00 | 0.00 | 0.00 | 44 | 1012.2 |
| 20260905040937 | 28 | 66 | 0.0 | 1.6 | 0.00 | 0.00 | 0.00 | 45 | 1011.9 |
| 20260905040436 | 28 | 74 | 0.0 | 3.2 | 0.00 | 0.00 | 0.00 | 45 | 1012.1 |
| 20260905035935 | 28 | 120 | 3.2 | 4.8 | 0.00 | 0.00 | 0.00 | 45 | 1011.9 |
| 20260905035431 | 27 | 81 | 0.0 | 1.6 | 0.00 | 0.00 | 0.00 | 45 | 1012.0 |
| 20260905034928 | 27 | 81 | 0.0 | 4.8 | 0.00 | 0.00 | 0.00 | 45 | 1012.1 |
| 20260905034423 | 27 | 90 | 0.0 | 0.0 | 0.00 | 0.00 | 0.00 | 45 | 1012.0 |
| 20260905033922 | 28 | 90 | 0.0 | 3.2 | 0.00 | 0.00 | 0.00 | 45 | 1011.9 |
| 20260905033417 | 28 | 157 | 0.0 | 3.2 | 0.00 | 0.00 | 0.00 | 45 | 1011.9 |
| 20260905032916 | 28 | 154 | 0.0 | 3.2 | 0.00 | 0.00 | 0.00 | 45 | 1011.9 |
| 20260905032412 | 28 | 90 | 0.0 | 4.8 | 0.00 | 0.00 | 0.00 | 45 | 1011.9 |
| 20260905031907 | 28 | 114 | 0.0 | 4.8 | 0.00 | 0.00 | 0.00 | 44 | 1011.5 |
| 20260905031403 | 29 | 90 | 0.0 | 4.8 | 0.00 | 0.00 | 0.00 | 44 | 1011.5 |
| 20260905030858 | 28 | 173 | 6.4 | 6.4 | 0.00 | 0.00 | 0.00 | 45 | 1011.4 |
| 20260905030354 | 28 | 151 | 3.2 | 4.8 | 0.00 | 0.00 | 0.00 | 45 | 1011.5 |
| 20260905025852 | 29 | 90 | 0.0 | 4.8 | 0.00 | 0.00 | 0.00 | 44 | 1011.2 |
| 20260905025348 | 29 | 147 | 3.2 | 6.4 | 0.00 | 0.00 | 0.00 | 44 | 1011.2 |
| 20260905024845 | 30 | 151 | 3.2 | 8.0 | 0.00 | 0.00 | 0.00 | 41 | 1011.1 |
| 20260905024344 | 30 | 81 | 0.0 | 1.6 | 0.00 | 0.00 | 0.00 | 41 | 1010.9 |
| 20260905023840 | 31 | 279 | 0.0 | 3.2 | 0.00 | 0.00 | 0.00 | 40 | 1010.6 |
| 20260905023335 | 30 | 23 | 0.0 | 1.6 | 0.00 | 0.00 | 0.00 | 39 | 1010.4 |
| 20260905022834 | 30 | 277 | 0.0 | 3.2 | 0.00 | 0.00 | 0.00 | 40 | 1010.7 |
| 20260905022330 | 30 | 90 | 0.0 | 0.0 | 0.00 | 0.00 | 0.00 | 40 | 1010.6 |
| 20260905021824 | 30 | 90 | 0.0 | 0.0 | 0.00 | 0.00 | 0.00 | 41 | 1010.6 |
| 20260905021320 | 30 | 0 | 0.0 | 0.0 | 0.00 | 0.00 | 0.00 | 41 | 1010.6 |
| 20260905020814 | 30 | 0 | 0.0 | 0.0 | 0.00 | 0.00 | 0.00 | 41 | 1010.3 |
| 20260905020309 | 30 | 276 | 0.0 | 3.2 | 0.00 | 0.00 | 0.00 | 41 | 1010.1 |
| 20260905015808 | 30 | 90 | 0.0 | 0.0 | 0.00 | 0.00 | 0.00 | 42 | 1010.1 |
| 20260905015306 | 31 | 246 | 0.0 | 3.2 | 0.00 | 0.00 | 0.00 | 42 | 1010.1 |
| 20260905014801 | 31 | 286 | 0.0 | 3.2 | 0.00 | 0.00 | 0.00 | 42 | 1009.9 |
| 20260905014258 | 31 | 278 | 0.0 | 4.8 | 0.00 | 0.00 | 0.00 | 42 | 1010.0 |
| 20260905013752 | 31 | 315 | 3.2 | 4.8 | 0.00 | 0.00 | 0.00 | 41 | 1010.1 |
| 20260905013249 | 31 | 304 | 0.0 | 8.0 | 0.00 | 0.00 | 0.00 | 39 | 1010.2 |
| 20260905012744 | 31 | 340 | 0.0 | 1.6 | 0.00 | 0.00 | 0.00 | 38 | 1010.1 |
| 20260905012239 | 32 | 66 | 0.0 | 4.8 | 0.00 | 0.00 | 0.00 | 36 | 1010.2 |
| 20260905011736 | 32 | 232 | 3.2 | 19.3 | 0.00 | 0.00 | 0.00 | 35 | 1010.0 |
| 20260905011232 | 32 | 270 | 0.0 | 1.6 | 0.00 | 0.00 | 0.00 | 36 | 1010.1 |
| 20260905010731 | 32 | 294 | 0.0 | 0.0 | 0.00 | 0.00 | 0.00 | 35 | 1009.7 |
| 20260905010226 | 32 | 0 | 0.0 | 1.6 | 0.00 | 0.00 | 0.00 | 36 | 1009.9 |
| 20260905005724 | 32 | 348 | 0.0 | 4.8 | 0.00 | 0.00 | 0.00 | 35 | 1010.0 |
| 20260905005219 | 33 | 335 | 0.0 | 9.7 | 0.00 | 0.00 | 0.00 | 35 | 1009.8 |
| 20260905004713 | 33 | 344 | 0.0 | 0.0 | 0.00 | 0.00 | 0.00 | 33 | 1009.8 |
| 20260905004208 | 33 | 90 | 0.0 | 1.6 | 0.00 | 0.00 | 0.00 | 32 | 1009.7 |
| 20260905003703 | 34 | 71 | 0.0 | 6.4 | 0.00 | 0.00 | 0.00 | 31 | 1009.7 |
| 20260905003159 | 35 | 209 | 0.0 | 4.8 | 0.00 | 0.00 | 0.00 | 30 | 1009.8 |
| 20260905002654 | 35 | 194 | 0.0 | 4.8 | 0.00 | 0.00 | 0.00 | 30 | 1009.6 |
| 20260905002154 | 35 | 237 | 3.2 | 6.4 | 0.00 | 0.00 | 0.00 | 30 | 1009.4 |
| 20260905001649 | 35 | 174 | 0.0 | 3.2 | 0.00 | 0.00 | 0.00 | 31 | 1009.4 |
| 20260905001148 | 35 | 255 | 0.0 | 1.6 | 0.00 | 0.00 | 0.00 | 31 | 1009.2 |
| 20260905000644 | 35 | 218 | 3.2 | 4.8 | 0.00 | 0.00 | 0.00 | 31 | 1009.4 |
| 20260905000140 | 35 | 230 | 4.8 | 4.8 | 0.00 | 0.00 | 0.00 | 29 | 1009.5 |
| 20260904235639 | 35 | 184 | 3.2 | 8.0 | 0.00 | 0.00 | 0.00 | 30 | 1009.5 |
| 20260904235139 | 35 | 186 | 1.6 | 4.8 | 0.00 | 0.00 | 0.00 | 30 | 1009.2 |
| 20260904234634 | 35 | 245 | 8.0 | 8.0 | 0.00 | 0.00 | 0.00 | 30 | 1009.2 |
| 20260904234130 | 35 | 159 | 0.0 | 4.8 | 0.00 | 0.00 | 0.00 | 29 | 1009.1 |
| 20260904233626 | 35 | 182 | 4.8 | 6.4 | 0.00 | 0.00 | 0.00 | 30 | 1009.4 |
| 20260904233121 | 36 | 239 | 4.8 | 9.7 | 0.00 | 0.00 | 0.00 | 28 | 1009.4 |
| 20260904232618 | 36 | 180 | 4.8 | 8.0 | 0.00 | 0.00 | 0.00 | 26 | 1008.8 |
| 20260904232114 | 36 | 217 | 3.2 | 9.7 | 0.00 | 0.00 | 0.00 | 26 | 1009.0 |
| 20260904231609 | 36 | 180 | 4.8 | 9.7 | 0.00 | 0.00 | 0.00 | 26 | 1009.0 |
| 20260904231109 | 37 | 151 | 6.4 | 12.9 | 0.00 | 0.00 | 0.00 | 26 | 1009.0 |
| 20260904230608 | 37 | 155 | 9.7 | 17.7 | 0.00 | 0.00 | 0.00 | 26 | 1008.9 |
| 20260904230104 | 37 | 171 | 6.4 | 14.5 | 0.00 | 0.00 | 0.00 | 25 | 1008.9 |
| 20260904225601 | 38 | 189 | 6.4 | 6.4 | 0.00 | 0.00 | 0.00 | 25 | 1009.0 |
| 20260904225056 | 37 | 182 | 8.0 | 11.3 | 0.00 | 0.00 | 0.00 | 25 | 1008.9 |
| 20260904224551 | 37 | 191 | 6.4 | 12.9 | 0.00 | 0.00 | 0.00 | 25 | 1009.0 |
| 20260904224046 | 37 | 180 | 4.8 | 12.9 | 0.00 | 0.00 | 0.00 | 25 | 1009.2 |
| 20260904223545 | 37 | 166 | 4.8 | 11.3 | 0.00 | 0.00 | 0.00 | 26 | 1008.9 |
| 20260904223041 | 37 | 154 | 4.8 | 8.0 | 0.00 | 0.00 | 0.00 | 26 | 1009.2 |
| 20260904222536 | 37 | 248 | 0.0 | 11.3 | 0.00 | 0.00 | 0.00 | 27 | 1009.2 |
| 20260904222032 | 37 | 236 | 8.0 | 11.3 | 0.00 | 0.00 | 0.00 | 26 | 1009.2 |
| 20260904221526 | 37 | 163 | 16.1 | 16.1 | 0.00 | 0.00 | 0.00 | 28 | 1009.4 |
| 20260904221021 | 37 | 160 | 4.8 | 8.0 | 0.00 | 0.00 | 0.00 | 28 | 1009.1 |
| 20260904220520 | 36 | 184 | 9.7 | 12.9 | 0.00 | 0.00 | 0.00 | 29 | 1009.4 |
| 20260904220017 | 36 | 198 | 4.8 | 8.0 | 0.00 | 0.00 | 0.00 | 29 | 1009.5 |
| 20260904215516 | 36 | 216 | 6.4 | 9.7 | 0.00 | 0.00 | 0.00 | 30 | 1009.2 |
| 20260904215012 | 36 | 168 | 8.0 | 8.0 | 0.00 | 0.00 | 0.00 | 28 | 1009.6 |
| 20260904214507 | 36 | 186 | 1.6 | 6.4 | 0.00 | 0.00 | 0.00 | 28 | 1009.5 |
| 20260904214002 | 36 | 182 | 9.7 | 17.7 | 0.00 | 0.00 | 0.00 | 28 | 1009.5 |
| 20260904213501 | 37 | 176 | 8.0 | 20.9 | 0.00 | 0.00 | 0.00 | 28 | 1009.5 |
| 20260904212957 | 37 | 183 | 8.0 | 20.9 | 0.00 | 0.00 | 0.00 | 27 | 1009.5 |
| 20260904212456 | 37 | 159 | 14.5 | 20.9 | 0.00 | 0.00 | 0.00 | 28 | 1009.5 |
| 20260904211951 | 36 | 180 | 6.4 | 16.1 | 0.00 | 0.00 | 0.00 | 30 | 1009.6 |
| 20260904211446 | 36 | 180 | 3.2 | 4.8 | 0.00 | 0.00 | 0.00 | 28 | 1009.6 |
| 20260904210942 | 36 | 108 | 4.8 | 8.0 | 0.00 | 0.00 | 0.00 | 29 | 1009.7 |
| 20260904210441 | 36 | 213 | 8.0 | 11.3 | 0.00 | 0.00 | 0.00 | 29 | 1009.9 |
| 20260904205937 | 36 | 159 | 3.2 | 11.3 | 0.00 | 0.00 | 0.00 | 28 | 1009.9 |
| 20260904205432 | 36 | 214 | 6.4 | 9.7 | 0.00 | 0.00 | 0.00 | 29 | 1010.0 |
| 20260904204929 | 37 | 213 | 4.8 | 9.7 | 0.00 | 0.00 | 0.00 | 26 | 1009.9 |
| 20260904204425 | 37 | 215 | 12.9 | 16.1 | 0.00 | 0.00 | 0.00 | 26 | 1010.0 |
| 20260904203921 | 37 | 167 | 8.0 | 14.5 | 0.00 | 0.00 | 0.00 | 27 | 1010.0 |
| 20260904203417 | 37 | 180 | 4.8 | 16.1 | 0.00 | 0.00 | 0.00 | 27 | 1009.9 |
| 20260904202912 | 38 | 180 | 8.0 | 9.7 | 0.00 | 0.00 | 0.00 | 26 | 1010.1 |
| 20260904202409 | 37 | 180 | 9.7 | 11.3 | 0.00 | 0.00 | 0.00 | 26 | 1010.1 |
| 20260904201904 | 36 | 166 | 12.9 | 12.9 | 0.00 | 0.00 | 0.00 | 27 | 1010.2 |
| 20260904201359 | 37 | 163 | 6.4 | 16.1 | 0.00 | 0.00 | 0.00 | 26 | 1010.6 |
| 20260904200854 | 38 | 117 | 0.0 | 11.3 | 0.00 | 0.00 | 0.00 | 25 | 1010.3 |
| 20260904200353 | 38 | 151 | 1.6 | 8.0 | 0.00 | 0.00 | 0.00 | 26 | 1010.4 |
| 20260904195848 | 36 | 165 | 8.0 | 12.9 | 0.00 | 0.00 | 0.00 | 27 | 1010.7 |
| 20260904195346 | 37 | 160 | 4.8 | 9.7 | 0.00 | 0.00 | 0.00 | 27 | 1010.7 |
| 20260904194841 | 37 | 148 | 3.2 | 9.7 | 0.00 | 0.00 | 0.00 | 26 | 1010.9 |
| 20260904194340 | 37 | 201 | 3.2 | 4.8 | 0.00 | 0.00 | 0.00 | 26 | 1010.8 |
| 20260904193836 | 37 | 156 | 12.9 | 20.9 | 0.00 | 0.00 | 0.00 | 27 | 1010.7 |
| 20260904193331 | 37 | 223 | 6.4 | 9.7 | 0.00 | 0.00 | 0.00 | 27 | 1011.1 |
| 20260904192826 | 37 | 169 | 6.4 | 12.9 | 0.00 | 0.00 | 0.00 | 27 | 1011.2 |
| 20260904192321 | 37 | 174 | 6.4 | 6.4 | 0.00 | 0.00 | 0.00 | 27 | 1011.2 |
| 20260904191818 | 37 | 70 | 6.4 | 6.4 | 0.00 | 0.00 | 0.00 | 27 | 1011.2 |
| 20260904191314 | 37 | 111 | 4.8 | 6.4 | 0.00 | 0.00 | 0.00 | 28 | 1011.3 |
| 20260904190811 | 37 | 223 | 8.0 | 17.7 | 0.00 | 0.00 | 0.00 | 28 | 1011.2 |
| 20260904190306 | 37 | 59 | 0.0 | 6.4 | 0.00 | 0.00 | 0.00 | 28 | 1011.3 |
| 20260904185803 | 37 | 68 | 0.0 | 8.0 | 0.00 | 0.00 | 0.00 | 28 | 1011.8 |
| 20260904185257 | 36 | 177 | 8.0 | 11.3 | 0.00 | 0.00 | 0.00 | 29 | 1011.6 |
| 20260904184756 | 36 | 182 | 6.4 | 14.5 | 0.00 | 0.00 | 0.00 | 29 | 1011.9 |
| 20260904184252 | 36 | 95 | 3.2 | 9.7 | 0.00 | 0.00 | 0.00 | 30 | 1011.9 |
| 20260904183747 | 36 | 192 | 3.2 | 9.7 | 0.00 | 0.00 | 0.00 | 30 | 1011.6 |
| 20260904183242 | 36 | 157 | 0.0 | 9.7 | 0.00 | 0.00 | 0.00 | 30 | 1012.0 |
| 20260904182738 | 36 | 206 | 0.0 | 9.7 | 0.00 | 0.00 | 0.00 | 30 | 1011.6 |
| 20260904182233 | 36 | 42 | 4.8 | 11.3 | 0.00 | 0.00 | 0.00 | 30 | 1012.2 |
| 20260904181728 | 35 | 188 | 1.6 | 8.0 | 0.00 | 0.00 | 0.00 | 31 | 1012.2 |
| 20260904181228 | 35 | 41 | 4.8 | 8.0 | 0.00 | 0.00 | 0.00 | 31 | 1012.2 |
| 20260904180723 | 35 | 244 | 4.8 | 9.7 | 0.00 | 0.00 | 0.00 | 31 | 1012.3 |
| 20260904180219 | 35 | 171 | 6.4 | 11.3 | 0.00 | 0.00 | 0.00 | 31 | 1012.4 |
| 20260904175717 | 36 | 194 | 8.0 | 12.9 | 0.00 | 0.00 | 0.00 | 30 | 1012.4 |
| 20260904175216 | 36 | 70 | 3.2 | 6.4 | 0.00 | 0.00 | 0.00 | 30 | 1012.3 |
| 20260904174711 | 36 | 180 | 3.2 | 6.4 | 0.00 | 0.00 | 0.00 | 30 | 1012.5 |
| 20260904174207 | 35 | 180 | 0.0 | 11.3 | 0.00 | 0.00 | 0.00 | 32 | 1012.9 |
| 20260904173702 | 35 | 152 | 3.2 | 12.9 | 0.00 | 0.00 | 0.00 | 32 | 1012.7 |
| 20260904173157 | 34 | 201 | 3.2 | 12.9 | 0.00 | 0.00 | 0.00 | 32 | 1013.1 |
| 20260904172654 | 35 | 161 | 8.0 | 8.0 | 0.00 | 0.00 | 0.00 | 30 | 1013.1 |
| 20260904172153 | 35 | 162 | 0.0 | 6.4 | 0.00 | 0.00 | 0.00 | 31 | 1013.0 |
| 20260904171649 | 35 | 160 | 0.0 | 8.0 | 0.00 | 0.00 | 0.00 | 32 | 1013.1 |
| 20260904171143 | 35 | 196 | 4.8 | 8.0 | 0.00 | 0.00 | 0.00 | 33 | 1013.0 |
| 20260904170640 | 34 | 277 | 4.8 | 9.7 | 0.00 | 0.00 | 0.00 | 35 | 1013.0 |
| 20260904170135 | 34 | 197 | 6.4 | 11.3 | 0.00 | 0.00 | 0.00 | 36 | 1013.0 |
| 20260904165633 | 35 | 196 | 3.2 | 6.4 | 0.00 | 0.00 | 0.00 | 34 | 1013.1 |
| 20260904165127 | 35 | 103 | 1.6 | 4.8 | 0.00 | 0.00 | 0.00 | 35 | 1013.1 |
| 20260904164622 | 34 | 252 | 0.0 | 3.2 | 0.00 | 0.00 | 0.00 | 35 | 1013.1 |
| 20260904164118 | 33 | 180 | 1.6 | 6.4 | 0.00 | 0.00 | 0.00 | 36 | 1013.1 |
| 20260904163612 | 33 | 209 | 1.6 | 8.0 | 0.00 | 0.00 | 0.00 | 37 | 1013.1 |
| 20260904163108 | 33 | 15 | 3.2 | 4.8 | 0.00 | 0.00 | 0.00 | 37 | 1013.0 |
| 20260904162603 | 34 | 249 | 4.8 | 6.4 | 0.00 | 0.00 | 0.00 | 36 | 1013.2 |
| 20260904162057 | 33 | 90 | 3.2 | 6.4 | 0.00 | 0.00 | 0.00 | 37 | 1013.2 |
| 20260904161552 | 33 | 159 | 3.2 | 8.0 | 0.00 | 0.00 | 0.00 | 38 | 1013.1 |
| 20260904161048 | 33 | 270 | 0.0 | 3.2 | 0.00 | 0.00 | 0.00 | 38 | 1013.0 |
| 20260904160543 | 33 | 168 | 0.0 | 9.7 | 0.00 | 0.00 | 0.00 | 39 | 1013.4 |
| 20260904160039 | 33 | 248 | 3.2 | 4.8 | 0.00 | 0.00 | 0.00 | 39 | 1013.0 |
| 20260904155537 | 33 | 173 | 0.0 | 4.8 | 0.00 | 0.00 | 0.00 | 40 | 1013.1 |
| 20260904155032 | 32 | 90 | 3.2 | 6.4 | 0.00 | 0.00 | 0.00 | 41 | 1013.1 |
| 20260904154526 | 31 | 203 | 4.8 | 8.0 | 0.00 | 0.00 | 0.00 | 43 | 1013.2 |
| 20260904154021 | 31 | 217 | 6.4 | 9.7 | 0.00 | 0.00 | 0.00 | 43 | 1013.1 |
| 20260904153521 | 31 | 250 | 0.0 | 9.7 | 0.00 | 0.00 | 0.00 | 44 | 1013.3 |